This is the latest recevied weather packets stored in our database for station/object K9ABJ. If no packets are shown the sender has not sent any weather packets the latest 10 day(s).
| Time | Temp. | Humidity | Pressure | Rain* | Wind** | Luminosity | Snow |
|---|---|---|---|---|---|---|---|
| 1788012656 | 22.22° C | 76% | 1022.8 hPa | 0 mm | - | 376 W/m² | - |
| 1788012350 | 22.22° C | 75% | 1022.6 hPa | 0 mm | - | 334 W/m² | - |
| 1788012046 | 22.22° C | 76% | 1022.6 hPa | 0 mm | - | 225 W/m² | - |
| 1788011744 | 21.67° C | 78% | 1022.5 hPa | 0 mm | - | 240 W/m² | - |
| 1788011440 | 21.67° C | 77% | 1022.7 hPa | 0 mm | - | 297 W/m² | - |
| 1788011139 | 20.56° C | 78% | 1022.3 hPa | 0 mm | - | 354 W/m² | - |
| 1788010834 | 20.56° C | 77% | 1022.5 hPa | 0 mm | - | 360 W/m² | - |
| 1788010533 | 20.56° C | 78% | 1022.1 hPa | 0 mm | - | 181 W/m² | - |
| 1788010228 | 20° C | 79% | 1022.4 hPa | 0 mm | - | 198 W/m² | - |
| 1788009927 | 20.56° C | 80% | 1022.5 hPa | 0 mm | - | 179 W/m² | - |
| 1788009626 | 20° C | 80% | 1022.7 hPa | 0 mm | - | 171 W/m² | - |
| 1788009320 | 19.44° C | 79% | 1022.4 hPa | 0 mm | - | 177 W/m² | - |
| 1788009015 | 20° C | 80% | 1022.3 hPa | 0 mm | - | 157 W/m² | - |
| 1788008711 | 19.44° C | 81% | 1022.6 hPa | 0 mm | - | 133 W/m² | - |
| 1788008410 | 20° C | 80% | 1022.6 hPa | 0 mm | - | 130 W/m² | - |
| 1788008107 | 18.89° C | 82% | 1022.7 hPa | 0 mm | - | 126 W/m² | - |
| 1788007806 | 18.89° C | 82% | 1022.9 hPa | 0 mm | - | 138 W/m² | - |
| 1788007500 | 18.33° C | 83% | 1022.6 hPa | 0 mm | - | 164 W/m² | - |
| 1788007200 | 18.33° C | 85% | 1022.5 hPa | 0 mm | - | 159 W/m² | - |
| 1788006899 | 18.33° C | 86% | 1022.3 hPa | 0 mm | - | 170 W/m² | - |
| 1788006598 | 17.22° C | 89% | 1022.1 hPa | 0 mm | - | 262 W/m² | - |
| 1788006293 | 16.67° C | 92% | 1022.4 hPa | 0 mm | - | 88 W/m² | - |
| 1788005992 | 17.22° C | 94% | 1022.7 hPa | 0 mm | - | 81 W/m² | - |
| 1788005687 | 16.67° C | 95% | 1022.5 hPa | 0 mm | - | 73 W/m² | - |
| 1788005387 | 16.11° C | 95% | 1022.5 hPa | 0 mm | - | 76 W/m² | - |
* Rain latest hour (hover to see other rain measurements)
** Current wind speed in m/s (hover to see current wind gust speed)